SARSAT 10 (NOAA 18)

Last updated on Sat Jul 05 2025 00:02:32 GMT+0000 (Coordinated Universal Time)

1 28654U 05018A 25185.67827738 .00000048 00000+0 48915-4 0 9990 2 28654 98.8422 264.8724 0015134 61.0801 299.1887 14.13616647 37297
UTC large
Height (km)
Speed (km/s)
/
Latitude / Longitude
Inclination (degrees)
Orbital Period (minutes)
Azimuth
Elevation
Range (km)
Doppler Factor

Next 0 passes for location: London (51.5072 / 0.1276)

Sorry there are no passes over London.